(58975) = 1998 RD31

Discovered at Socorro on 1998-09-14 by LINEAR.

Orbit

Orbit type: Main Belt

Note: WebGL enabled browser required.

epoch2023-09-13.0
epoch JD2460200.5
perihelion date2019-01-14.42820
perihelion JD2458497.92820
argument of perihelion (°)349.95611
ascending node (°)296.39726
inclination (°)5.24861
eccentricity0.0848056
perihelion distance (AU)2.7781633
Tisserand w.r.t. Jupiter3.2
ΔV w.r.t. Earth (km/sec)10.5
semimajor axis (AU)3.0355991
mean anomaly (°)317.27997
mean daily motion (°/day)0.18635340
aphelion distance (AU)3.293
period (years)5.29
P-vector [x]0.28221568
P-vector [y]-0.87371951
P-vector [z]-0.39619254
Q-vector [x]0.95584531
Q-vector [y]0.22081283
Q-vector [z]0.19391091
absolute magnitude14.74
phase slope0.15
uncertainty0
referenceMPEC 2024-A26
observations used1168
oppositions20
arc length (days)10079
first opposition used1995
last opposition used2023
residual rms (arc-secs)0.67
perturbers coarse indicatorM-v
perturbers precise indicator003Ek
first observation date used1995-11-14.0
last observation date used2023-06-19.0
computer nameMPCLINUX
JD of orbit computation2456966.820579
perihelion JD uncertainty (days)1.9707E-04
argument of perihelion uncertainty (°)6.8539E-05
ascending node uncertainty (°)5.8905E-05
inclination uncertainty (°)4.7270E-06
eccentricity uncertainty 4.0984E-08
perihelion distance uncertainty (AU)1.2283E-07
Minimum Orbit Intersection Distances (in AU)
for orbit epoch: 2460200.5, reference: E2024-A12
Mercury2.32106
Venus2.0505
Earth1.76133
Mars1.32219
Jupiter1.84295
Saturn5.77219
Uranus15.2655
Neptune26.712

Observations

1200 total observations over interval: 1995 11 14.49922 – 2023 06 19.304354
These data are available for download (format description).

Date (UT) J2000 RA J2000 Dec Magn Location Ref
1995 11 14.49922 10 41 58.77 +05 52 54.7 20.8 V 691 – Steward Observatory, Kitt Peak-Spacewatch MPS 79508
1995 11 14.50526 10 41 59.08 +05 52 52.3 20.9 V 691 – Steward Observatory, Kitt Peak-Spacewatch MPS 79508
1995 11 14.51152 10 41 59.41 +05 52 49.5 21.1 V 691 – Steward Observatory, Kitt Peak-Spacewatch MPS 79508
1998 08 17.36410 23 24 27.65 +02 15 15.7 19.4   704 – Lincoln Laboratory ETS, New Mexico MPS 34033
1998 08 17.38518 23 24 26.94 +02 15 14.3 19.8   704 – Lincoln Laboratory ETS, New Mexico MPS 34033
1998 08 17.40633 23 24 26.13 +02 15 11.5 19.8   704 – Lincoln Laboratory ETS, New Mexico MPS 34033
1998 08 17.42732 23 24 25.23 +02 15 11.5 19.7   704 – Lincoln Laboratory ETS, New Mexico MPS 34033
1998 08 17.44819 23 24 24.62 +02 15 11.5 19.7   704 – Lincoln Laboratory ETS, New Mexico MPS 34033
1998 09 14.24856 23 04 05.71 +00 52 58.3 19.1   704 – Lincoln Laboratory ETS, New Mexico MPS 2310
1998 09 14.27060 23 04 04.50 +00 52 52.4 19.1   704 – Lincoln Laboratory ETS, New Mexico MPS 2310
1998 09 14.29252 23 04 03.58 +00 52 46.9 19.5   704 – Lincoln Laboratory ETS, New Mexico MPS 2310
1998 09 14.31464 23 04 02.39 +00 52 41.7 19.3   704 – Lincoln Laboratory ETS, New Mexico MPS 2310
1998 09 15.30229 23 03 17.04 +00 48 42.3 19.2 R 699 – Lowell Observatory-LONEOS MPS 34033
1998 09 15.33185 23 03 15.66 +00 48 36.7   699 – Lowell Observatory-LONEOS MPS 34033
1998 09 15.35668 23 03 14.45 +00 48 29.8   699 – Lowell Observatory-LONEOS MPS 34033
1998 09 18.26928 23 01 02.63 +00 36 37.9 18.5   704 – Lincoln Laboratory ETS, New Mexico MPS 2310
1998 09 18.28212 23 01 02.02 +00 36 35.1 18.5   704 – Lincoln Laboratory ETS, New Mexico MPS 2310
1998 09 18.29499 23 01 01.42 +00 36 30.7 19.0   704 – Lincoln Laboratory ETS, New Mexico MPS 2310
1998 09 18.30773 23 01 00.80 +00 36 26.6 19.0   704 – Lincoln Laboratory ETS, New Mexico MPS 2310
1998 10 11.18696 22 47 38.31 -00 49 48.8 18.6 R 699 – Lowell Observatory-LONEOS MPS 84894
1998 10 11.21179 22 47 37.77 -00 49 52.7   699 – Lowell Observatory-LONEOS MPS 84894
1998 10 11.23662 22 47 37.14 -00 49 58.6   699 – Lowell Observatory-LONEOS MPS 84894
2001 01 04.47288 09 46 45.91 +11 13 29.1 20.4   608 – Haleakala-AMOS MPS 35413
2001 01 04.48325 09 46 45.62 +11 13 29.3 20.1   608 – Haleakala-AMOS MPS 35413
2001 01 04.49377 09 46 45.36 +11 13 29.5 20.4   608 – Haleakala-AMOS MPS 35413
2001 01 31.32161 09 29 25.27 +11 57 29.2 18.8   704 – Lincoln Laboratory ETS, New Mexico MPS 35413
2001 01 31.33653 09 29 24.44 +11 57 32.1 19.1   704 – Lincoln Laboratory ETS, New Mexico MPS 35413
2001 01 31.35146 09 29 23.73 +11 57 33.0 19.0   704 – Lincoln Laboratory ETS, New Mexico MPS 35413
2001 01 31.36637 09 29 23.05 +11 57 36.9 19.0   704 – Lincoln Laboratory ETS, New Mexico MPS 35413
2001 01 31.38130 09 29 22.27 +11 57 38.9 19.1   704 – Lincoln Laboratory ETS, New Mexico MPS 35413
2001 02 19.24230 09 13 46.21 +12 48 46.1 19.4   704 – Lincoln Laboratory ETS, New Mexico MPS 35413
2001 02 19.25670 09 13 45.53 +12 48 47.4 19.9   704 – Lincoln Laboratory ETS, New Mexico MPS 35413
2001 02 19.27082 09 13 44.76 +12 48 50.8 19.7   704 – Lincoln Laboratory ETS, New Mexico MPS 35413
2001 02 19.28497 09 13 44.14 +12 48 53.3 19.7   704 – Lincoln Laboratory ETS, New Mexico MPS 35413
2001 02 19.29925 09 13 43.45 +12 48 54.7 19.3   704 – Lincoln Laboratory ETS, New Mexico MPS 35413
2002 05 01.34779 14 09 52.30 -21 24 06.6 19.4   644 – Palomar Mountain/NEAT MPS 54272
2002 05 01.35838 14 09 51.78 -21 24 03.5 19.2   644 – Palomar Mountain/NEAT MPS 54272
2002 05 01.36868 14 09 51.24 -21 24 00.5 19.1   644 – Palomar Mountain/NEAT MPS 54272
2002 05 09.21737 14 03 38.17 -20 46 41.2 19.4   704 – Lincoln Laboratory ETS, New Mexico MPS 54272
2002 05 09.22968 14 03 37.63 -20 46 37.5 19.8   704 – Lincoln Laboratory ETS, New Mexico MPS 54272
2002 05 09.24197 14 03 37.06 -20 46 33.3 20.3   704 – Lincoln Laboratory ETS, New Mexico MPS 54272
2002 05 10.19143 14 02 54.28 -20 41 51.9 18.7   644 – Palomar Mountain/NEAT MPS 54272
2002 05 10.21297 14 02 53.27 -20 41 45.4 18.6   644 – Palomar Mountain/NEAT MPS 54272
2002 05 10.23396 14 02 52.29 -20 41 39.3 18.6   644 – Palomar Mountain/NEAT MPS 54272
2002 05 11.23046 14 02 07.77 -20 36 40.8 18.6   704 – Lincoln Laboratory ETS, New Mexico MPS 54272
2002 05 11.24539 14 02 07.14 -20 36 36.2 19.0   704 – Lincoln Laboratory ETS, New Mexico MPS 54272
2002 05 11.26138 14 02 06.45 -20 36 31.5 18.5   704 – Lincoln Laboratory ETS, New Mexico MPS 54272
2002 05 11.27623 14 02 05.76 -20 36 26.1 18.8   704 – Lincoln Laboratory ETS, New Mexico MPS 54272
2002 05 11.29198 14 02 05.06 -20 36 22.1 19.0   704 – Lincoln Laboratory ETS, New Mexico MPS 54272
2002 05 17.29114 13 57 56.20 -20 06 29.8 18.5   644 – Palomar Mountain/NEAT MPS 54272
2002 05 17.31417 13 57 55.28 -20 06 23.1 18.6   644 – Palomar Mountain/NEAT MPS 54272
2002 05 17.35763 13 57 53.53 -20 06 09.9 19.0   644 – Palomar Mountain/NEAT MPS 54272
2002 05 28.31042 13 51 58.39 -19 14 09.9 20.0   608 – Haleakala-AMOS MPS 56846
2002 05 28.32082 13 51 58.11 -19 14 06.8 20.3   608 – Haleakala-AMOS MPS 56846
2002 05 28.33205 13 51 57.84 -19 14 03.9 20.3   608 – Haleakala-AMOS MPS 56846
2002 06 05.17216 13 49 17.22 -18 41 45.4 20.1   644 – Palomar Mountain/NEAT MPS 56846
2002 06 05.19415 13 49 16.86 -18 41 40.3 19.8   644 – Palomar Mountain/NEAT MPS 56846
2002 06 05.21452 13 49 16.47 -18 41 35.7 20.0   644 – Palomar Mountain/NEAT MPS 56846
2003 07 06.39851 21 50 50.02 -10 56 54.4 19.3 V 691 – Steward Observatory, Kitt Peak-Spacewatch MPS 82203
2003 07 06.42782 21 50 49.44 -10 56 53.1 19.4 V 691 – Steward Observatory, Kitt Peak-Spacewatch MPS 82203
2003 07 06.45039 21 50 48.98 -10 56 52.1 19.2 V 691 – Steward Observatory, Kitt Peak-Spacewatch MPS 82203
2003 07 22.56441 21 43 06.83 -10 59 01.2 19.6   608 – Haleakala-AMOS MPS 82347
2003 07 22.57490 21 43 06.42 -10 59 01.7 19.5   608 – Haleakala-AMOS MPS 82347
2003 07 22.58531 21 43 05.99 -10 59 02.5 19.7   608 – Haleakala-AMOS MPS 82347
2003 07 25.31578 21 41 18.30 -11 01 58.1 18.5   704 – Lincoln Laboratory ETS, New Mexico MPS 82576
2003 07 25.32728 21 41 17.79 -11 01 59.4 18.4   704 – Lincoln Laboratory ETS, New Mexico MPS 82576
2003 07 25.33761 21 41 17.34 -11 01 59.7 18.4   704 – Lincoln Laboratory ETS, New Mexico MPS 82576
2003 07 25.34802 21 41 16.86 -11 02 00.1 18.3   704 – Lincoln Laboratory ETS, New Mexico MPS 82576
2003 07 25.35811 21 41 16.45 -11 02 01.4 18.3   704 – Lincoln Laboratory ETS, New Mexico MPS 82576
2003 08 04.28679 21 33 52.46 -11 17 36.2 19.4   704 – Lincoln Laboratory ETS, New Mexico MPS 82867
2003 08 04.29739 21 33 51.79 -11 17 37.9 19.8   704 – Lincoln Laboratory ETS, New Mexico MPS 82867
2003 08 04.31823 21 33 50.89 -11 17 40.4 19.8   704 – Lincoln Laboratory ETS, New Mexico MPS 82867
2003 08 04.32862 21 33 50.35 -11 17 39.1 19.5   704 – Lincoln Laboratory ETS, New Mexico MPS 82867
2003 08 24.26367 21 17 42.96 -12 00 45.3 18.9   704 – Lincoln Laboratory ETS, New Mexico MPS 83867
2003 08 24.27598 21 17 42.40 -12 00 46.8 19.2   704 – Lincoln Laboratory ETS, New Mexico MPS 83867
2003 08 24.28880 21 17 41.78 -12 00 48.2 19.4   704 – Lincoln Laboratory ETS, New Mexico MPS 83867
2003 08 24.30164 21 17 41.16 -12 00 50.0 19.2   704 – Lincoln Laboratory ETS, New Mexico MPS 83867
2003 08 24.31504 21 17 40.55 -12 00 51.1 19.0   704 – Lincoln Laboratory ETS, New Mexico MPS 83867
2003 08 30.30310 21 13 20.54 -12 13 32.1 18.7 R 735 – George Observatory, Needville MPS 84417
2003 08 30.31008 21 13 20.24 -12 13 32.2 18.3 R 735 – George Observatory, Needville MPS 84417
2003 08 30.32380 21 13 19.74 -12 13 33.8 19.2 R 735 – George Observatory, Needville MPS 84417
2003 09 15.11472 21 04 55.59 -12 38 51.8 19.0 R 699 – Lowell Observatory-LONEOS MPS 84894
2003 09 15.12970 21 04 55.21 -12 38 53.8   699 – Lowell Observatory-LONEOS MPS 84894
2003 09 15.14465 21 04 54.88 -12 38 54.7   699 – Lowell Observatory-LONEOS MPS 84894
2003 09 15.15958 21 04 54.54 -12 38 55.2   699 – Lowell Observatory-LONEOS MPS 84894
2003 10 24.08558 21 08 44.08 -12 20 02.2 18.2   704 – Lincoln Laboratory ETS, New Mexico MPS 89109
2003 10 24.09774 21 08 44.45 -12 20 00.6 19.2   704 – Lincoln Laboratory ETS, New Mexico MPS 89109
